When you browse on this site, cookies collect data to enhance your experience and personalize the content and advertising you see.
Visit our Privacy Policy to learn more. By continuing to use the site, you agree to this use of cookies and data.
  • en France
  • Liste des pays
  • À 7 jours
  • Température de l'eau
  • Carte satellitaire
  • Carte météo
  • Widgets météo
  • user-avatar
    Se connecter

    Météo par heure à Pazardjik

    Ce jour, 22 Mai, Mercredi

    Heure Température Précipitation Vent Pression Humidité
    00:00 +15°C° 0 mm 2 m/s 742 mmHg 68%
    01:00 +14°C° 0 mm 2 m/s 742 mmHg 69%
    02:00 +14°C° 0 mm 2 m/s 742 mmHg 70%
    03:00 +14°C° 0 mm 2 m/s 742 mmHg 70%
    04:00 +14°C° 0 mm 2 m/s 742 mmHg 70%
    05:00 +13°C° 0 mm 2 m/s 742 mmHg 70%
    06:00 +16°C° 0 mm 1 m/s 742 mmHg 63%
    07:00 +19°C° 0 mm 1 m/s 742 mmHg 57%
    08:00 +21°C° 0 mm 1 m/s 743 mmHg 51%
    09:00 +23°C° 0 mm 1 m/s 742 mmHg 46%
    10:00 +25°C° 0 mm 2 m/s 742 mmHg 42%
    11:00 +26°C° 0 mm 2 m/s 742 mmHg 38%
    12:00 +26°C° 0 mm 2 m/s 742 mmHg 39%
    13:00 +26°C° 0 mm 2 m/s 742 mmHg 39%
    14:00 +27°C° 0 mm 2 m/s 741 mmHg 40%
    15:00 +27°C° 0 mm 2 m/s 741 mmHg 40%
    16:00 +27°C° 0 mm 2 m/s 741 mmHg 41%
    17:00 +27°C° 0 mm 1 m/s 740 mmHg 41%
    18:00 +25°C° 0 mm 1 m/s 740 mmHg 48%
    19:00 +23°C° 0 mm 1 m/s 740 mmHg 56%
    20:00 +20°C° 0 mm 1 m/s 740 mmHg 63%
    21:00 +20°C° 0 mm 1 m/s 741 mmHg 65%
    22:00 +18°C° 0 mm 2 m/s 741 mmHg 67%
    23:00 +17°C° 0 mm 2 m/s 741 mmHg 69%

    Demain, 23 Mai, Jeudi

    Heure Température Précipitation Vent Pression Humidité
    00:00 +17°C° 0 mm 2 m/s 741 mmHg 70%
    01:00 +16°C° 0 mm 2 m/s 741 mmHg 70%
    02:00 +16°C° 0 mm 2 m/s 741 mmHg 71%
    03:00 +16°C° 0 mm 2 m/s 741 mmHg 71%
    04:00 +15°C° 0 mm 2 m/s 741 mmHg 72%
    05:00 +15°C° 0 mm 2 m/s 741 mmHg 72%
    06:00 +17°C° 0 mm 2 m/s 741 mmHg 67%
    07:00 +19°C° 0 mm 2 m/s 741 mmHg 62%
    08:00 +21°C° 0 mm 2 m/s 742 mmHg 57%
    09:00 +23°C° 0 mm 2 m/s 742 mmHg 54%
    10:00 +25°C° 0 mm 2 m/s 742 mmHg 52%
    11:00 +26°C° 0 mm 2 m/s 741 mmHg 49%
    12:00 +26°C° 0.7 mm 2 m/s 741 mmHg 50%
    13:00 +26°C° 0.7 mm 1 m/s 741 mmHg 52%
    14:00 +27°C° 0.7 mm 1 m/s 741 mmHg 53%
    15:00 +26°C° 1.4 mm 1 m/s 740 mmHg 55%
    16:00 +25°C° 1.4 mm 1 m/s 740 mmHg 58%
    17:00 +24°C° 1.4 mm 1 m/s 739 mmHg 60%
    18:00 +23°C° 1 mm 1 m/s 739 mmHg 66%
    19:00 +21°C° 1 mm 1 m/s 739 mmHg 71%
    20:00 +19°C° 1 mm 1 m/s 739 mmHg 77%
    21:00 +19°C° 0.7 mm 1 m/s 740 mmHg 80%
    22:00 +18°C° 0.7 mm 1 m/s 740 mmHg 83%
    23:00 +16°C° 0.7 mm 1 m/s 740 mmHg 86%

    Après-demain, 24 Mai, Vendredi

    Heure Température Précipitation Vent Pression Humidité
    00:00 +16°C° 0.5 mm 1 m/s 740 mmHg 86%
    01:00 +16°C° 0.5 mm 1 m/s 740 mmHg 86%
    02:00 +16°C° 0.5 mm 1 m/s 739 mmHg 86%
    03:00 +15°C° 0.2 mm 1 m/s 739 mmHg 87%
    04:00 +15°C° 0.2 mm 1 m/s 739 mmHg 87%
    05:00 +15°C° 0.2 mm 1 m/s 739 mmHg 88%
    06:00 +16°C° 0.2 mm 1 m/s 739 mmHg 85%
    07:00 +17°C° 0.2 mm 2 m/s 739 mmHg 82%
    08:00 +18°C° 0.2 mm 2 m/s 739 mmHg 78%
    09:00 +19°C° 0.2 mm 2 m/s 739 mmHg 73%
    10:00 +20°C° 0.2 mm 2 m/s 739 mmHg 68%
    11:00 +21°C° 0.2 mm 2 m/s 739 mmHg 63%
    12:00 +23°C° 0.4 mm 2 m/s 739 mmHg 60%
    13:00 +23°C° 0.4 mm 2 m/s 739 mmHg 58%
    14:00 +24°C° 0.4 mm 1 m/s 738 mmHg 55%
    15:00 +24°C° 0.3 mm 2 m/s 738 mmHg 56%
    16:00 +24°C° 0.3 mm 2 m/s 738 mmHg 57%
    17:00 +23°C° 0.3 mm 2 m/s 737 mmHg 58%
    18:00 +21°C° 0.4 mm 2 m/s 738 mmHg 65%
    19:00 +19°C° 0.4 mm 2 m/s 738 mmHg 73%
    20:00 +17°C° 0.4 mm 2 m/s 738 mmHg 80%
    21:00 +16°C° 0.1 mm 2 m/s 738 mmHg 83%
    22:00 +15°C° 0.1 mm 2 m/s 739 mmHg 85%
    23:00 +15°C° 0.1 mm 2 m/s 739 mmHg 88%

    25 Mai, Samedi

    Heure Température Précipitation Vent Pression Humidité
    00:00 +14°C° 0 mm 2 m/s 739 mmHg 88%
    01:00 +14°C° 0 mm 2 m/s 739 mmHg 87%
    02:00 +14°C° 0 mm 2 m/s 739 mmHg 87%
    03:00 +13°C° 0 mm 2 m/s 739 mmHg 86%
    04:00 +13°C° 0 mm 2 m/s 739 mmHg 86%
    05:00 +13°C° 0 mm 2 m/s 739 mmHg 85%
    06:00 +14°C° 0 mm 3 m/s 740 mmHg 79%
    07:00 +17°C° 0 mm 3 m/s 740 mmHg 72%
    08:00 +19°C° 0 mm 3 m/s 740 mmHg 65%
    09:00 +21°C° 0 mm 4 m/s 741 mmHg 59%
    10:00 +22°C° 0 mm 4 m/s 741 mmHg 53%
    11:00 +25°C° 0 mm 4 m/s 741 mmHg 47%
    12:00 +25°C° 0 mm 4 m/s 741 mmHg 46%
    13:00 +26°C° 0 mm 4 m/s 741 mmHg 45%
    14:00 +27°C° 0 mm 4 m/s 741 mmHg 43%
    15:00 +26°C° 0 mm 4 m/s 741 mmHg 45%
    16:00 +26°C° 0 mm 3 m/s 740 mmHg 46%
    17:00 +26°C° 0 mm 3 m/s 740 mmHg 47%
    18:00 +24°C° 0 mm 3 m/s 741 mmHg 55%
    19:00 +21°C° 0 mm 2 m/s 741 mmHg 62%
    20:00 +19°C° 0 mm 2 m/s 741 mmHg 70%
    21:00 +18°C° 0 mm 2 m/s 742 mmHg 72%
    22:00 +17°C° 0 mm 2 m/s 742 mmHg 74%
    23:00 +16°C° 0 mm 2 m/s 742 mmHg 76%

    26 Mai, Dimanche

    Heure Température Précipitation Vent Pression Humidité
    00:00 +16°C° 0 mm 2 m/s 742 mmHg 77%
    01:00 +15°C° 0 mm 2 m/s 742 mmHg 77%
    02:00 +15°C° 0 mm 2 m/s 742 mmHg 78%
    03:00 +14°C° 0 mm 2 m/s 742 mmHg 77%
    04:00 +14°C° 0 mm 2 m/s 742 mmHg 77%
    05:00 +14°C° 0 mm 2 m/s 742 mmHg 76%
    06:00 +16°C° 0 mm 1 m/s 743 mmHg 68%
    07:00 +20°C° 0 mm 1 m/s 743 mmHg 60%
    08:00 +22°C° 0 mm 1 m/s 743 mmHg 52%
    09:00 +24°C° 0 mm 1 m/s 743 mmHg 47%
    10:00 +26°C° 0 mm 1 m/s 743 mmHg 42%
    11:00 +27°C° 0 mm 1 m/s 743 mmHg 37%
    12:00 +28°C° 0 mm 2 m/s 742 mmHg 37%
    13:00 +28°C° 0 mm 2 m/s 742 mmHg 36%
    14:00 +29°C° 0 mm 2 m/s 742 mmHg 35%
    15:00 +28°C° 0 mm 2 m/s 742 mmHg 37%
    16:00 +28°C° 0 mm 2 m/s 742 mmHg 39%
    17:00 +28°C° 0 mm 2 m/s 741 mmHg 40%
    18:00 +26°C° 0 mm 1 m/s 741 mmHg 48%
    19:00 +24°C° 0 mm 1 m/s 741 mmHg 55%
    20:00 +22°C° 0 mm 1 m/s 741 mmHg 62%
    21:00 +21°C° 0 mm 1 m/s 742 mmHg 65%
    22:00 +20°C° 0 mm 1 m/s 742 mmHg 68%
    23:00 +18°C° 0 mm 2 m/s 742 mmHg 70%

    27 Mai, Lundi

    Heure Température Précipitation Vent Pression Humidité
    00:00 +18°C° 0 mm 2 m/s 742 mmHg 71%
    01:00 +18°C° 0 mm 2 m/s 742 mmHg 72%
    02:00 +17°C° 0 mm 2 m/s 742 mmHg 73%
    03:00 +17°C° 0 mm 2 m/s 742 mmHg 73%
    04:00 +17°C° 0 mm 2 m/s 742 mmHg 72%
    05:00 +17°C° 0 mm 2 m/s 742 mmHg 72%
    06:00 +20°C° 0 mm 1 m/s 742 mmHg 67%
    07:00 +22°C° 0 mm 1 m/s 743 mmHg 63%
    08:00 +24°C° 0 mm 1 m/s 743 mmHg 58%
    09:00 +25°C° 0 mm 1 m/s 743 mmHg 55%
    10:00 +26°C° 0 mm 1 m/s 743 mmHg 52%
    11:00 +27°C° 0 mm 1 m/s 743 mmHg 49%
    12:00 +28°C° 0.2 mm 1 m/s 743 mmHg 48%
    13:00 +29°C° 0.2 mm 1 m/s 743 mmHg 47%
    14:00 +29°C° 0.2 mm 1 m/s 743 mmHg 46%
    15:00 +29°C° 0.2 mm 1 m/s 743 mmHg 47%
    16:00 +28°C° 0.2 mm 1 m/s 742 mmHg 49%
    17:00 +28°C° 0.2 mm 1 m/s 742 mmHg 50%
    18:00 +26°C° 0 mm 1 m/s 742 mmHg 56%
    19:00 +24°C° 0 mm 1 m/s 742 mmHg 62%
    20:00 +22°C° 0 mm 1 m/s 742 mmHg 67%
    21:00 +22°C° 0 mm 1 m/s 743 mmHg 70%
    22:00 +21°C° 0 mm 1 m/s 743 mmHg 72%
    23:00 +20°C° 0 mm 1 m/s 743 mmHg 75%
    Voir plus